User: anonymous   Login
Location: NJAA Observatory
(40.6819°N, 74.8979°W)
Time: 19:32:35
(UTC-05:00)
Language:

Cosmos 220 Rocket - Orbit

View from above orbital plane
View from above orbital plane
View from above satellite
View from above satellite

Ground track
Ground track

The orbit data is extracted from the following two-line orbital elements,

1 03230U 68040B   15057.63810681  .00001484  00000-0  16108-3 0  9993
2 03230 074.0362 126.2009 0032889 301.2148 058.5811 14.88801358510203
Epoch (UTC): 26 February 2015 15:18:52
Eccentricity: 0.0032889
inclination: 74.0362°
perigee height: 579 km
apogee height: 624 km
right ascension of ascending node: 126.2009°
argument of perigee: 301.2148°
revolutions per day: 14.88801358
mean anomaly at epoch: 58.5811°
orbit number at epoch: 51020

The dashed part of the orbit path shows where the satellite is in the earth's shadow,  

DLR